| time (UTC) | temp F | wind direction | speed knots | gust knots | rain 1hr in | rain 24hr in | rain mn in | humidity % | barometer mb |
| 20260508114003 | 66 | 281 | 0.0 | 0.9 | 0.00 | 0.00 | 0.00 | 87 | 1013.5 |
| 20260508113508 | 66 | 281 | 0.0 | 0.9 | 0.00 | 0.00 | 0.00 | 86 | 1013.6 |
| 20260508113014 | 66 | 280 | 0.0 | 0.0 | 0.00 | 0.00 | 0.00 | 86 | 1013.7 |
| 20260508112513 | 66 | 281 | 0.0 | 0.0 | 0.00 | 0.00 | 0.00 | 86 | 1013.8 |
| 20260508112007 | 66 | 281 | 0.0 | 0.0 | 0.00 | 0.00 | 0.00 | 86 | 1013.8 |
| 20260508111509 | 66 | 280 | 0.0 | 0.0 | 0.00 | 0.00 | 0.00 | 86 | 1013.5 |
| 20260508111014 | 66 | 280 | 0.0 | 0.9 | 0.00 | 0.00 | 0.00 | 86 | 1013.7 |
| 20260508110507 | 66 | 303 | 0.0 | 0.9 | 0.00 | 0.00 | 0.00 | 86 | 1013.7 |
| 20260508110025 | 66 | 159 | 0.0 | 0.0 | 0.00 | 0.00 | 0.00 | 86 | 1013.5 |
| 20260508105509 | 66 | 159 | 0.0 | 0.0 | 0.00 | 0.00 | 0.00 | 86 | 1013.4 |
| 20260508105010 | 66 | 159 | 0.0 | 0.0 | 0.00 | 0.00 | 0.00 | 86 | 1013.2 |
| 20260508104526 | 66 | 119 | 0.0 | 0.0 | 0.00 | 0.00 | 0.00 | 86 | 1013.3 |
| 20260508104006 | 66 | 119 | 0.0 | 0.9 | 0.00 | 0.00 | 0.00 | 85 | 1013.3 |
| 20260508103505 | 66 | 119 | 0.0 | 0.9 | 0.00 | 0.00 | 0.00 | 85 | 1013.1 |
| 20260508103026 | 66 | 146 | 0.0 | 0.9 | 0.00 | 0.00 | 0.00 | 85 | 1013.4 |
| 20260508102506 | 66 | 86 | 0.0 | 0.9 | 0.00 | 0.00 | 0.00 | 85 | 1013.3 |
| 20260508102005 | 66 | 86 | 0.0 | 0.9 | 0.00 | 0.00 | 0.00 | 85 | 1013.4 |
| 20260508101521 | 66 | 352 | 0.0 | 0.0 | 0.00 | 0.00 | 0.00 | 85 | 1013.7 |
| 20260508101003 | 66 | 350 | 0.0 | 0.0 | 0.00 | 0.00 | 0.00 | 85 | 1013.8 |
| 20260508100506 | 66 | 351 | 0.0 | 0.0 | 0.00 | 0.00 | 0.00 | 85 | 1013.8 |
| 20260508100018 | 66 | 350 | 0.0 | 0.0 | 0.00 | 0.00 | 0.00 | 85 | 1013.8 |
| 20260508095504 | 66 | 350 | 0.0 | 0.0 | 0.00 | 0.00 | 0.00 | 85 | 1013.9 |
| 20260508095012 | 66 | 350 | 0.0 | 0.9 | 0.00 | 0.00 | 0.00 | 85 | 1013.9 |
| 20260508094515 | 66 | 350 | 0.0 | 0.9 | 0.00 | 0.00 | 0.00 | 85 | 1013.5 |
| 20260508094010 | 66 | 71 | 0.0 | 0.9 | 0.00 | 0.00 | 0.00 | 84 | 1013.0 |
| 20260508093506 | 66 | 72 | 0.0 | 0.0 | 0.00 | 0.00 | 0.00 | 84 | 1013.2 |
| 20260508093015 | 66 | 339 | 0.0 | 0.0 | 0.00 | 0.00 | 0.00 | 84 | 1013.4 |
| 20260508092509 | 66 | 339 | 0.0 | 0.0 | 0.00 | 0.00 | 0.00 | 84 | 1013.5 |
| 20260508092007 | 66 | 339 | 0.0 | 0.0 | 0.00 | 0.00 | 0.00 | 84 | 1013.4 |
| 20260508091512 | 66 | 339 | 0.0 | 0.0 | 0.00 | 0.00 | 0.00 | 84 | 1013.3 |
| 20260508091008 | 66 | 340 | 0.0 | 0.0 | 0.00 | 0.00 | 0.00 | 84 | 1013.2 |
| 20260508090506 | 66 | 340 | 0.0 | 0.0 | 0.00 | 0.00 | 0.00 | 83 | 1013.2 |
| 20260508090024 | 66 | 340 | 0.0 | 0.0 | 0.00 | 0.00 | 0.00 | 83 | 1013.1 |
| 20260508085510 | 66 | 340 | 0.0 | 0.0 | 0.00 | 0.00 | 0.00 | 83 | 1013.1 |
| 20260508085004 | 66 | 337 | 0.0 | 0.0 | 0.00 | 0.00 | 0.00 | 83 | 1013.2 |
| 20260508084526 | 66 | 336 | 0.0 | 0.0 | 0.00 | 0.00 | 0.00 | 84 | 1013.4 |
| 20260508084007 | 66 | 337 | 0.0 | 0.0 | 0.00 | 0.00 | 0.00 | 84 | 1013.4 |
| 20260508083502 | 66 | 336 | 0.0 | 0.0 | 0.00 | 0.00 | 0.00 | 83 | 1013.4 |
| 20260508083028 | 66 | 337 | 0.0 | 0.0 | 0.00 | 0.00 | 0.00 | 83 | 1013.5 |
| 20260508082507 | 66 | 337 | 0.0 | 0.0 | 0.00 | 0.00 | 0.00 | 83 | 1013.4 |
| 20260508082008 | 66 | 336 | 0.0 | 0.0 | 0.00 | 0.00 | 0.00 | 84 | 1013.5 |
| 20260508081524 | 66 | 336 | 0.0 | 0.0 | 0.00 | 0.00 | 0.00 | 83 | 1013.6 |
| 20260508081007 | 66 | 337 | 0.0 | 0.0 | 0.00 | 0.00 | 0.00 | 83 | 1013.4 |
| 20260508080509 | 66 | 337 | 0.0 | 0.0 | 0.00 | 0.00 | 0.00 | 83 | 1013.4 |
| 20260508080022 | 66 | 336 | 0.0 | 0.0 | 0.00 | 0.00 | 0.00 | 84 | 1013.5 |
| 20260508075503 | 66 | 337 | 0.0 | 0.0 | 0.00 | 0.00 | 0.00 | 83 | 1013.5 |
| 20260508075006 | 66 | 337 | 0.0 | 0.0 | 0.00 | 0.00 | 0.00 | 82 | 1013.5 |
| 20260508074522 | 66 | 337 | 0.0 | 0.0 | 0.00 | 0.00 | 0.00 | 83 | 1013.7 |
| 20260508074011 | 66 | 337 | 0.0 | 0.0 | 0.00 | 0.00 | 0.00 | 82 | 1013.7 |
| 20260508073507 | 66 | 311 | 0.0 | 0.0 | 0.00 | 0.00 | 0.00 | 83 | 1014.1 |
| 20260508073017 | 66 | 311 | 0.0 | 0.0 | 0.00 | 0.00 | 0.00 | 83 | 1014.1 |
| 20260508072509 | 66 | 311 | 0.0 | 0.0 | 0.00 | 0.00 | 0.00 | 82 | 1014.0 |
| 20260508072005 | 66 | 311 | 0.0 | 0.0 | 0.00 | 0.00 | 0.00 | 83 | 1014.1 |
| 20260508071526 | 66 | 311 | 0.0 | 0.0 | 0.00 | 0.00 | 0.00 | 82 | 1013.9 |
| 20260508071012 | 66 | 311 | 0.0 | 0.0 | 0.00 | 0.00 | 0.00 | 82 | 1013.9 |
| 20260508070503 | 66 | 311 | 0.0 | 0.0 | 0.00 | 0.00 | 0.00 | 82 | 1014.0 |
| 20260508070029 | 66 | 311 | 0.0 | 0.0 | 0.00 | 0.00 | 0.00 | 82 | 1014.0 |
| 20260508065509 | 66 | 311 | 0.0 | 0.0 | 0.00 | 0.00 | 0.00 | 82 | 1014.0 |
| 20260508065007 | 66 | 311 | 0.0 | 0.9 | 0.00 | 0.00 | 0.00 | 83 | 1014.0 |
| 20260508064529 | 66 | 311 | 0.0 | 0.9 | 0.00 | 0.00 | 0.00 | 83 | 1014.1 |
| 20260508064006 | 66 | 339 | 0.0 | 0.9 | 0.00 | 0.00 | 0.00 | 83 | 1014.0 |
| 20260508063514 | 66 | 334 | 0.0 | 0.0 | 0.00 | 0.00 | 0.00 | 83 | 1014.2 |
| 20260508063024 | 65 | 335 | 0.0 | 0.0 | 0.00 | 0.00 | 0.00 | 83 | 1014.4 |
| 20260508062507 | 65 | 334 | 0.0 | 0.0 | 0.00 | 0.00 | 0.00 | 84 | 1014.1 |
| 20260508062011 | 65 | 334 | 0.0 | 0.9 | 0.00 | 0.00 | 0.00 | 84 | 1014.1 |
| 20260508061528 | 65 | 334 | 0.0 | 0.9 | 0.00 | 0.00 | 0.00 | 84 | 1014.5 |
| 20260508061004 | 65 | 334 | 0.0 | 0.9 | 0.00 | 0.00 | 0.00 | 85 | 1014.4 |
| 20260508060516 | 65 | 59 | 0.0 | 0.0 | 0.00 | 0.00 | 0.00 | 85 | 1014.0 |
| 20260508060024 | 65 | 59 | 0.0 | 0.0 | 0.00 | 0.00 | 0.00 | 84 | 1013.9 |
| 20260508055510 | 65 | 59 | 0.0 | 0.0 | 0.00 | 0.00 | 0.00 | 85 | 1013.7 |
| 20260508055009 | 65 | 59 | 0.0 | 0.0 | 0.00 | 0.00 | 0.00 | 85 | 1013.7 |
| 20260508054519 | 65 | 59 | 0.0 | 0.0 | 0.00 | 0.00 | 0.00 | 85 | 1014.0 |
| 20260508054011 | 65 | 59 | 0.0 | 0.0 | 0.00 | 0.00 | 0.00 | 85 | 1014.1 |
| 20260508053510 | 65 | 59 | 0.0 | 0.0 | 0.00 | 0.00 | 0.00 | 85 | 1014.3 |
| 20260508053031 | 65 | 59 | 0.0 | 0.0 | 0.00 | 0.00 | 0.00 | 84 | 1014.2 |
| 20260508052514 | 65 | 60 | 0.0 | 0.0 | 0.00 | 0.00 | 0.00 | 84 | 1013.8 |
| 20260508052008 | 65 | 60 | 0.0 | 0.0 | 0.00 | 0.00 | 0.00 | 84 | 1013.6 |
| 20260508051530 | 65 | 60 | 0.0 | 0.0 | 0.00 | 0.00 | 0.00 | 83 | 1013.6 |
| 20260508051008 | 65 | 58 | 0.0 | 0.0 | 0.00 | 0.00 | 0.00 | 84 | 1013.9 |
| 20260508050507 | 65 | 58 | 0.0 | 0.0 | 0.00 | 0.00 | 0.00 | 83 | 1013.9 |
| 20260508050029 | 65 | 58 | 0.0 | 0.0 | 0.00 | 0.00 | 0.00 | 83 | 1014.0 |
| 20260508045508 | 65 | 58 | 0.0 | 0.0 | 0.00 | 0.00 | 0.00 | 83 | 1013.9 |
| 20260508045011 | 65 | 58 | 0.0 | 0.0 | 0.00 | 0.00 | 0.00 | 82 | 1014.1 |
| 20260508044525 | 65 | 58 | 0.0 | 0.0 | 0.00 | 0.00 | 0.00 | 82 | 1014.0 |
| 20260508044008 | 66 | 58 | 0.0 | 0.0 | 0.00 | 0.00 | 0.00 | 82 | 1013.9 |
| 20260508043510 | 66 | 58 | 0.0 | 0.0 | 0.00 | 0.00 | 0.00 | 83 | 1013.9 |
| 20260508043024 | 66 | 58 | 0.0 | 0.0 | 0.00 | 0.00 | 0.00 | 83 | 1013.9 |
| 20260508042507 | 65 | 58 | 0.0 | 0.0 | 0.00 | 0.00 | 0.00 | 82 | 1014.1 |
| 20260508042010 | 66 | 58 | 0.0 | 0.0 | 0.00 | 0.00 | 0.00 | 82 | 1014.1 |
| 20260508041526 | 66 | 58 | 0.0 | 0.0 | 0.00 | 0.00 | 0.00 | 83 | 1014.0 |
| 20260508041011 | 66 | 58 | 0.0 | 0.9 | 0.00 | 0.00 | 0.00 | 82 | 1014.2 |
| 20260508040507 | 66 | 58 | 0.0 | 0.9 | 0.00 | 0.00 | 0.00 | 82 | 1014.3 |
| 20260508040024 | 66 | 58 | 0.0 | 0.0 | 0.00 | 0.00 | 0.00 | 82 | 1014.3 |
| 20260508035512 | 66 | 58 | 0.0 | 0.0 | 0.00 | 0.00 | 0.00 | 83 | 1014.4 |
| 20260508035009 | 66 | 58 | 0.0 | 0.9 | 0.00 | 0.00 | 0.00 | 83 | 1014.1 |
| 20260508034529 | 66 | 58 | 0.0 | 0.9 | 0.00 | 0.00 | 0.00 | 83 | 1013.9 |
| 20260508034012 | 65 | 58 | 0.0 | 0.0 | 0.00 | 0.00 | 0.00 | 84 | 1013.8 |
| 20260508033507 | 66 | 58 | 0.0 | 0.9 | 0.00 | 0.00 | 0.00 | 84 | 1014.1 |
| 20260508033028 | 66 | 58 | 0.0 | 0.9 | 0.00 | 0.00 | 0.00 | 84 | 1014.0 |
| 20260508032510 | 66 | 58 | 0.0 | 0.9 | 0.00 | 0.00 | 0.00 | 84 | 1013.7 |
| 20260508032009 | 66 | 323 | 0.0 | 0.0 | 0.00 | 0.00 | 0.00 | 83 | 1014.0 |
| 20260508031513 | 66 | 323 | 0.0 | 0.0 | 0.00 | 0.00 | 0.00 | 83 | 1014.0 |
| 20260508031003 | 66 | 323 | 0.0 | 0.0 | 0.00 | 0.00 | 0.00 | 83 | 1014.0 |
| 20260508030506 | 66 | 323 | 0.0 | 0.0 | 0.00 | 0.00 | 0.00 | 82 | 1014.1 |
| 20260508030013 | 66 | 323 | 0.0 | 0.0 | 0.00 | 0.00 | 0.00 | 81 | 1014.1 |
| 20260508025510 | 66 | 323 | 0.0 | 0.0 | 0.00 | 0.00 | 0.00 | 82 | 1014.2 |
| 20260508025006 | 67 | 323 | 0.0 | 0.0 | 0.00 | 0.00 | 0.00 | 81 | 1014.2 |
| 20260508024511 | 67 | 323 | 0.0 | 0.0 | 0.00 | 0.00 | 0.00 | 81 | 1014.4 |
| 20260508024007 | 67 | 323 | 0.0 | 0.0 | 0.00 | 0.00 | 0.00 | 80 | 1014.5 |
| 20260508023504 | 67 | 323 | 0.0 | 1.7 | 0.00 | 0.00 | 0.00 | 80 | 1014.5 |
| 20260508023009 | 67 | 324 | 0.0 | 1.7 | 0.00 | 0.00 | 0.00 | 79 | 1014.6 |
| 20260508022505 | 67 | 323 | 0.0 | 0.9 | 0.00 | 0.00 | 0.00 | 79 | 1014.5 |
| 20260508022006 | 67 | 320 | 0.0 | 0.9 | 0.00 | 0.00 | 0.00 | 80 | 1014.4 |
| 20260508021527 | 67 | 323 | 0.0 | 0.9 | 0.00 | 0.00 | 0.00 | 80 | 1014.2 |
| 20260508021009 | 67 | 329 | 0.0 | 0.9 | 0.00 | 0.00 | 0.00 | 80 | 1014.5 |
| 20260508020503 | 67 | 332 | 0.0 | 0.0 | 0.00 | 0.00 | 0.00 | 81 | 1014.2 |
| 20260508020034 | 67 | 332 | 0.0 | 0.0 | 0.00 | 0.00 | 0.00 | 81 | 1014.3 |
| 20260508015504 | 67 | 333 | 0.0 | 0.9 | 0.00 | 0.00 | 0.00 | 81 | 1014.4 |
| 20260508015003 | 67 | 332 | 0.0 | 0.9 | 0.00 | 0.00 | 0.00 | 81 | 1014.5 |
| 20260508014522 | 68 | 332 | 0.0 | 0.0 | 0.00 | 0.00 | 0.00 | 81 | 1014.4 |
| 20260508014008 | 68 | 333 | 0.0 | 0.0 | 0.00 | 0.00 | 0.00 | 82 | 1014.4 |
| 20260508013511 | 68 | 332 | 0.0 | 0.0 | 0.00 | 0.00 | 0.00 | 81 | 1014.4 |
| 20260508013017 | 68 | 332 | 0.0 | 0.0 | 0.00 | 0.00 | 0.00 | 80 | 1014.5 |
| 20260508012504 | 68 | 332 | 0.0 | 0.0 | 0.00 | 0.00 | 0.00 | 80 | 1014.3 |
| 20260508012007 | 69 | 332 | 0.0 | 0.0 | 0.00 | 0.00 | 0.00 | 80 | 1014.2 |
| 20260508011519 | 69 | 332 | 0.0 | 0.0 | 0.00 | 0.00 | 0.00 | 80 | 1014.2 |
| 20260508011013 | 69 | 332 | 0.0 | 0.9 | 0.00 | 0.00 | 0.00 | 79 | 1014.2 |
| 20260508010508 | 69 | 332 | 0.0 | 0.9 | 0.00 | 0.00 | 0.00 | 78 | 1014.3 |
| 20260508010014 | 69 | 332 | 0.0 | 0.9 | 0.00 | 0.00 | 0.00 | 77 | 1014.2 |
| 20260508005507 | 70 | 341 | 0.0 | 0.9 | 0.00 | 0.00 | 0.00 | 77 | 1014.2 |
| 20260508005004 | 70 | 342 | 0.0 | 0.9 | 0.00 | 0.00 | 0.00 | 77 | 1014.2 |
| 20260508004510 | 70 | 337 | 0.0 | 0.9 | 0.00 | 0.00 | 0.00 | 76 | 1014.0 |
| 20260508004013 | 70 | 338 | 0.0 | 0.0 | 0.00 | 0.00 | 0.00 | 76 | 1014.1 |
| 20260508003504 | 70 | 337 | 0.0 | 0.0 | 0.00 | 0.00 | 0.00 | 76 | 1014.1 |
| 20260508003027 | 71 | 337 | 0.0 | 0.0 | 0.00 | 0.00 | 0.00 | 77 | 1013.7 |
| 20260508002509 | 71 | 337 | 0.0 | 0.9 | 0.00 | 0.00 | 0.00 | 76 | 1013.8 |
| 20260508002008 | 71 | 338 | 0.0 | 0.9 | 0.00 | 0.00 | 0.00 | 74 | 1014.1 |
| 20260508001525 | 72 | 338 | 0.0 | 0.9 | 0.00 | 0.00 | 0.00 | 75 | 1014.3 |
| 20260508001008 | 72 | 338 | 0.0 | 2.6 | 0.00 | 0.00 | 0.00 | 74 | 1014.4 |
| 20260508000505 | 72 | 2 | 0.0 | 3.5 | 0.00 | 0.00 | 0.00 | 73 | 1014.4 |
| 20260508000024 | 72 | 306 | 0.0 | 3.5 | 0.00 | 0.00 | 0.00 | 72 | 1014.4 |
| 20260507235508 | 73 | 288 | 0.9 | 2.6 | 0.00 | 0.00 | 0.00 | 71 | 1014.3 |
| 20260507235009 | 73 | 255 | 0.0 | 0.9 | 0.00 | 0.00 | 0.00 | 72 | 1014.3 |
| 20260507234531 | 73 | 97 | 0.0 | 3.5 | 0.00 | 0.00 | 0.00 | 72 | 1014.4 |
| 20260507234003 | 74 | 355 | 0.9 | 3.5 | 0.00 | 0.00 | 0.00 | 70 | 1014.4 |
| 20260507233507 | 74 | 324 | 0.0 | 3.5 | 0.00 | 0.00 | 0.00 | 70 | 1014.4 |
| 20260507233022 | 74 | 328 | 0.9 | 3.5 | 0.00 | 0.00 | 0.00 | 70 | 1014.4 |
| 20260507232511 | 75 | 240 | 0.0 | 0.9 | 0.00 | 0.00 | 0.00 | 71 | 1014.5 |
| 20260507232007 | 75 | 240 | 0.0 | 0.9 | 0.00 | 0.00 | 0.00 | 70 | 1014.3 |
| 20260507231517 | 75 | 12 | 0.0 | 0.9 | 0.00 | 0.00 | 0.00 | 72 | 1014.4 |
| 20260507231009 | 75 | 12 | 0.0 | 0.9 | 0.00 | 0.00 | 0.00 | 71 | 1014.2 |
| 20260507230510 | 75 | 340 | 0.0 | 0.9 | 0.00 | 0.00 | 0.00 | 72 | 1014.3 |
| 20260507230015 | 74 | 340 | 0.0 | 1.7 | 0.00 | 0.00 | 0.00 | 70 | 1014.4 |
| 20260507225508 | 75 | 323 | 0.0 | 1.7 | 0.00 | 0.00 | 0.00 | 70 | 1014.4 |
| 20260507225007 | 75 | 101 | 0.0 | 0.9 | 0.00 | 0.00 | 0.00 | 71 | 1014.2 |
| 20260507224530 | 75 | 101 | 0.0 | 0.9 | 0.00 | 0.00 | 0.00 | 71 | 1014.1 |
| 20260507224010 | 75 | 263 | 0.0 | 1.7 | 0.00 | 0.00 | 0.00 | 70 | 1014.0 |
| 20260507223510 | 75 | 42 | 0.0 | 1.7 | 0.00 | 0.00 | 0.00 | 70 | 1014.0 |
| 20260507223025 | 75 | 63 | 0.0 | 0.9 | 0.00 | 0.00 | 0.00 | 70 | 1013.9 |
| 20260507222507 | 76 | 2 | 0.0 | 1.7 | 0.00 | 0.00 | 0.00 | 69 | 1013.8 |
| 20260507222005 | 76 | 212 | 0.0 | 2.6 | 0.00 | 0.00 | 0.00 | 70 | 1013.8 |
| 20260507221526 | 76 | 52 | 0.0 | 2.6 | 0.00 | 0.00 | 0.00 | 70 | 1013.9 |
| 20260507221007 | 76 | 236 | 0.0 | 1.7 | 0.00 | 0.00 | 0.00 | 71 | 1013.9 |
| 20260507220510 | 76 | 108 | 0.0 | 1.7 | 0.00 | 0.00 | 0.00 | 72 | 1014.1 |
| 20260507220024 | 76 | 72 | 0.0 | 0.9 | 0.00 | 0.00 | 0.00 | 72 | 1014.2 |
| 20260507215506 | 76 | 73 | 0.0 | 0.9 | 0.00 | 0.00 | 0.00 | 72 | 1014.2 |
| 20260507215017 | 76 | 73 | 0.0 | 0.9 | 0.00 | 0.00 | 0.00 | 71 | 1014.2 |
| 20260507214526 | 76 | 73 | 0.0 | 1.7 | 0.00 | 0.00 | 0.00 | 71 | 1014.4 |
| 20260507214008 | 76 | 73 | 0.0 | 1.7 | 0.00 | 0.00 | 0.00 | 70 | 1014.3 |
| 20260507213511 | 76 | 7 | 0.0 | 2.6 | 0.00 | 0.00 | 0.00 | 69 | 1014.5 |
| 20260507213022 | 76 | 341 | 0.0 | 2.6 | 0.00 | 0.00 | 0.00 | 70 | 1014.3 |
| 20260507212511 | 76 | 70 | 0.0 | 1.7 | 0.00 | 0.00 | 0.00 | 72 | 1014.3 |
| 20260507212012 | 76 | 102 | 0.0 | 2.6 | 0.00 | 0.00 | 0.00 | 71 | 1014.3 |
| 20260507211519 | 76 | 110 | 0.0 | 2.6 | 0.00 | 0.00 | 0.00 | 70 | 1014.4 |
| 20260507211006 | 76 | 327 | 0.0 | 2.6 | 0.00 | 0.00 | 0.00 | 69 | 1014.5 |
| 20260507210502 | 76 | 319 | 0.0 | 2.6 | 0.00 | 0.00 | 0.00 | 69 | 1014.6 |
| 20260507210018 | 77 | 6 | 0.0 | 2.6 | 0.00 | 0.00 | 0.00 | 70 | 1014.7 |
| 20260507205508 | 77 | 277 | 0.0 | 2.6 | 0.00 | 0.00 | 0.00 | 69 | 1014.7 |
| 20260507205008 | 77 | 65 | 0.0 | 4.3 | 0.00 | 0.00 | 0.00 | 69 | 1014.7 |
| 20260507204514 | 77 | 302 | 0.0 | 4.3 | 0.00 | 0.00 | 0.00 | 69 | 1014.9 |
| 20260507204006 | 77 | 128 | 0.0 | 1.7 | 0.00 | 0.00 | 0.00 | 70 | 1014.7 |
| 20260507203512 | 76 | 30 | 0.0 | 2.6 | 0.00 | 0.00 | 0.00 | 72 | 1014.9 |
| 20260507203013 | 76 | 288 | 0.0 | 2.6 | 0.00 | 0.00 | 0.00 | 68 | 1014.9 |
| 20260507202504 | 77 | 340 | 0.0 | 2.6 | 0.00 | 0.00 | 0.00 | 68 | 1014.9 |
| 20260507202006 | 77 | 330 | 0.0 | 2.6 | 0.00 | 0.00 | 0.00 | 70 | 1015.0 |
| 20260507201507 | 77 | 68 | 0.0 | 1.7 | 0.00 | 0.00 | 0.00 | 68 | 1015.0 |
| 20260507201008 | 77 | 99 | 0.9 | 2.6 | 0.00 | 0.00 | 0.00 | 67 | 1015.1 |
| 20260507200504 | 77 | 265 | 0.9 | 2.6 | 0.00 | 0.00 | 0.00 | 70 | 1014.9 |
| 20260507200010 | 77 | 238 | 0.0 | 3.5 | 0.00 | 0.00 | 0.00 | 70 | 1015.1 |
| 20260507195507 | 76 | 13 | 0.0 | 3.5 | 0.00 | 0.00 | 0.00 | 69 | 1015.1 |
| 20260507195003 | 77 | 293 | 0.0 | 1.7 | 0.00 | 0.00 | 0.00 | 68 | 1015.2 |
| 20260507194506 | 77 | 6 | 0.9 | 3.5 | 0.00 | 0.00 | 0.00 | 67 | 1015.4 |
| 20260507194006 | 77 | 25 | 0.9 | 3.5 | 0.00 | 0.00 | 0.00 | 68 | 1015.5 |
| 20260507193504 | 77 | 96 | 0.9 | 2.6 | 0.00 | 0.00 | 0.00 | 68 | 1015.3 |
| 20260507193024 | 77 | 51 | 0.0 | 2.6 | 0.00 | 0.00 | 0.00 | 69 | 1015.2 |
| 20260507192503 | 77 | 22 | 0.9 | 2.6 | 0.00 | 0.00 | 0.00 | 69 | 1015.2 |
| 20260507192003 | 76 | 354 | 0.0 | 4.3 | 0.00 | 0.00 | 0.00 | 70 | 1015.2 |
| 20260507191520 | 76 | 288 | 0.9 | 4.3 | 0.00 | 0.00 | 0.00 | 68 | 1015.2 |
| 20260507191003 | 76 | 65 | 0.9 | 2.6 | 0.00 | 0.00 | 0.00 | 69 | 1015.6 |
| 20260507190509 | 76 | 58 | 0.9 | 1.7 | 0.00 | 0.00 | 0.00 | 70 | 1015.9 |
| 20260507190019 | 75 | 213 | 0.0 | 1.7 | 0.00 | 0.00 | 0.00 | 71 | 1016.0 |
| 20260507185503 | 74 | 10 | 0.0 | 3.5 | 0.00 | 0.00 | 0.00 | 72 | 1016.1 |
| 20260507185007 | 74 | 17 | 0.9 | 4.3 | 0.00 | 0.00 | 0.00 | 73 | 1016.2 |
| 20260507184515 | 74 | 284 | 0.9 | 4.3 | 0.00 | 0.00 | 0.00 | 72 | 1016.3 |
| 20260507184004 | 74 | 345 | 0.9 | 2.6 | 0.00 | 0.03 | 0.00 | 71 | 1016.1 |
| 20260507183508 | 74 | 354 | 0.9 | 2.6 | 0.00 | 0.04 | 0.00 | 72 | 1016.1 |
| 20260507183014 | 73 | 298 | 0.9 | 3.5 | 0.00 | 0.04 | 0.00 | 75 | 1016.3 |
| 20260507182508 | 73 | 31 | 0.9 | 3.5 | 0.00 | 0.04 | 0.00 | 74 | 1016.3 |
| 20260507182011 | 72 | 237 | 0.9 | 4.3 | 0.00 | 0.04 | 0.00 | 74 | 1016.2 |
| 20260507181509 | 72 | 18 | 0.9 | 4.3 | 0.00 | 0.04 | 0.00 | 73 | 1016.4 |
| 20260507181011 | 72 | 310 | 0.9 | 2.6 | 0.00 | 0.04 | 0.00 | 71 | 1016.4 |
| 20260507180508 | 72 | 309 | 0.0 | 3.5 | 0.00 | 0.04 | 0.00 | 75 | 1016.5 |
| 20260507180006 | 72 | 325 | 0.9 | 4.3 | 0.00 | 0.04 | 0.00 | 74 | 1016.7 |
| 20260507175508 | 71 | 32 | 0.9 | 4.3 | 0.00 | 0.04 | 0.00 | 75 | 1016.7 |
| 20260507175006 | 71 | 323 | 0.9 | 3.5 | 0.00 | 0.04 | 0.00 | 76 | 1016.7 |
| 20260507174527 | 70 | 13 | 0.9 | 3.5 | 0.00 | 0.04 | 0.00 | 76 | 1016.7 |
| 20260507174007 | 69 | 43 | 0.0 | 1.7 | 0.00 | 0.04 | 0.00 | 77 | 1017.0 |
| 20260507173506 | 69 | 252 | 0.0 | 2.6 | 0.00 | 0.04 | 0.00 | 77 | 1017.1 |
| 20260507173038 | 69 | 335 | 0.9 | 5.2 | 0.00 | 0.04 | 0.00 | 78 | 1017.3 |
| 20260507172506 | 69 | 11 | 0.0 | 5.2 | 0.00 | 0.04 | 0.00 | 78 | 1017.3 |
| 20260507172003 | 69 | 335 | 0.0 | 3.5 | 0.00 | 0.04 | 0.00 | 78 | 1017.3 |
| 20260507171521 | 69 | 356 | 0.9 | 3.5 | 0.00 | 0.04 | 0.00 | 77 | 1017.4 |
| 20260507171007 | 69 | 311 | 0.9 | 2.6 | 0.00 | 0.04 | 0.00 | 77 | 1017.5 |
| 20260507170510 | 69 | 210 | 0.0 | 2.6 | 0.00 | 0.04 | 0.00 | 78 | 1017.2 |
| 20260507170023 | 69 | 241 | 0.9 | 2.6 | 0.00 | 0.04 | 0.00 | 77 | 1017.1 |
| 20260507165503 | 69 | 276 | 0.0 | 2.6 | 0.00 | 0.04 | 0.00 | 79 | 1017.1 |
| 20260507165011 | 69 | 75 | 0.0 | 2.6 | 0.00 | 0.04 | 0.00 | 79 | 1017.1 |
| 20260507164516 | 68 | 82 | 0.0 | 1.7 | 0.00 | 0.04 | 0.00 | 80 | 1017.1 |
| 20260507164012 | 68 | 274 | 0.0 | 2.6 | 0.00 | 0.04 | 0.00 | 79 | 1017.2 |
| 20260507163508 | 68 | 2 | 0.9 | 2.6 | 0.00 | 0.04 | 0.00 | 79 | 1017.1 |
| 20260507163013 | 67 | 282 | 0.0 | 2.6 | 0.00 | 0.04 | 0.00 | 81 | 1016.9 |
| 20260507162508 | 67 | 278 | 0.0 | 2.6 | 0.00 | 0.04 | 0.00 | 80 | 1016.8 |
| 20260507162007 | 66 | 77 | 0.9 | 2.6 | 0.00 | 0.04 | 0.00 | 80 | 1016.7 |
| 20260507161520 | 66 | 76 | 0.0 | 2.6 | 0.00 | 0.04 | 0.00 | 80 | 1016.7 |
| 20260507161006 | 66 | 202 | 0.0 | 2.6 | 0.00 | 0.04 | 0.00 | 81 | 1016.7 |
| 20260507160506 | 66 | 221 | 0.9 | 2.6 | 0.00 | 0.04 | 0.00 | 81 | 1016.6 |
| 20260507160028 | 66 | 65 | 0.0 | 0.9 | 0.00 | 0.04 | 0.00 | 82 | 1016.5 |
| 20260507155508 | 65 | 293 | 0.0 | 0.9 | 0.00 | 0.04 | 0.00 | 84 | 1016.4 |
| 20260507155004 | 64 | 89 | 0.0 | 1.7 | 0.00 | 0.04 | 0.00 | 84 | 1016.3 |
| 20260507154529 | 64 | 229 | 0.0 | 2.6 | 0.00 | 0.04 | 0.00 | 84 | 1016.3 |
| 20260507154007 | 64 | 51 | 1.7 | 2.6 | 0.00 | 0.04 | 0.00 | 83 | 1016.6 |
| 20260507153502 | 64 | 98 | 0.0 | 2.6 | 0.00 | 0.04 | 0.00 | 84 | 1016.6 |
| 20260507153024 | 63 | 276 | 0.0 | 2.6 | 0.00 | 0.04 | 0.00 | 85 | 1016.7 |
| 20260507152508 | 63 | 97 | 0.0 | 4.3 | 0.00 | 0.04 | 0.00 | 85 | 1016.9 |
| 20260507152010 | 63 | 266 | 0.0 | 4.3 | 0.00 | 0.04 | 0.00 | 85 | 1016.9 |
| 20260507151519 | 63 | 340 | 0.0 | 2.6 | 0.00 | 0.04 | 0.00 | 85 | 1016.7 |
| 20260507151003 | 63 | 30 | 0.0 | 3.5 | 0.00 | 0.04 | 0.00 | 86 | 1016.7 |
| 20260507150511 | 62 | 318 | 0.0 | 4.3 | 0.00 | 0.04 | 0.00 | 86 | 1016.6 |
| 20260507150021 | 62 | 32 | 0.9 | 4.3 | 0.00 | 0.04 | 0.00 | 86 | 1016.3 |
| 20260507145503 | 62 | 341 | 0.0 | 3.5 | 0.00 | 0.04 | 0.00 | 86 | 1016.5 |
| 20260507145008 | 62 | 348 | 0.0 | 3.5 | 0.00 | 0.04 | 0.00 | 86 | 1016.6 |
| 20260507144519 | 62 | 323 | 0.0 | 7.0 | 0.00 | 0.04 | 0.00 | 86 | 1016.7 |
| 20260507144010 | 62 | 95 | 0.0 | 7.0 | 0.00 | 0.04 | 0.00 | 86 | 1016.6 |
| 20260507143510 | 62 | 33 | 0.0 | 5.2 | 0.00 | 0.04 | 0.00 | 88 | 1016.7 |
| 20260507143017 | 62 | 347 | 0.0 | 2.6 | 0.00 | 0.04 | 0.00 | 88 | 1016.7 |
| 20260507142507 | 61 | 9 | 0.0 | 7.0 | 0.00 | 0.04 | 0.00 | 88 | 1016.8 |
| 20260507142010 | 61 | 41 | 0.0 | 7.0 | 0.00 | 0.04 | 0.00 | 89 | 1016.6 |
| 20260507141527 | 61 | 8 | 0.9 | 5.2 | 0.00 | 0.04 | 0.00 | 89 | 1016.5 |
| 20260507141007 | 61 | 348 | 0.9 | 4.3 | 0.00 | 0.04 | 0.00 | 89 | 1016.6 |
| 20260507140504 | 61 | 328 | 0.0 | 4.3 | 0.00 | 0.04 | 0.00 | 89 | 1016.7 |
| 20260507140027 | 61 | 331 | 0.0 | 3.5 | 0.00 | 0.04 | 0.00 | 90 | 1016.7 |
| 20260507135507 | 61 | 7 | 0.0 | 3.5 | 0.00 | 0.04 | 0.00 | 90 | 1016.7 |
| 20260507135006 | 61 | 335 | 0.0 | 3.5 | 0.00 | 0.04 | 0.00 | 90 | 1016.7 |
| 20260507134530 | 61 | 301 | 0.9 | 3.5 | 0.00 | 0.04 | 0.00 | 89 | 1016.7 |
| 20260507134010 | 61 | 341 | 0.0 | 0.9 | 0.00 | 0.04 | 0.00 | 89 | 1017.0 |
| 20260507133509 | 61 | 7 | 0.0 | 1.7 | 0.00 | 0.04 | 0.00 | 90 | 1016.9 |
| 20260507133026 | 61 | 272 | 0.0 | 2.6 | 0.00 | 0.04 | 0.00 | 89 | 1017.0 |
| 20260507132506 | 61 | 105 | 0.0 | 2.6 | 0.00 | 0.04 | 0.00 | 90 | 1016.7 |
| 20260507132008 | 61 | 338 | 0.0 | 2.6 | 0.00 | 0.04 | 0.00 | 90 | 1016.7 |
| 20260507131524 | 61 | 49 | 0.0 | 0.9 | 0.00 | 0.04 | 0.00 | 89 | 1016.7 |
| 20260507131009 | 61 | 219 | 0.0 | 2.6 | 0.00 | 0.04 | 0.00 | 90 | 1016.9 |
| 20260507130513 | 61 | 311 | 0.0 | 3.5 | 0.00 | 0.04 | 0.00 | 89 | 1017.0 |
| 20260507130023 | 61 | 335 | 0.9 | 3.5 | 0.00 | 0.04 | 0.00 | 89 | 1016.8 |
| 20260507125511 | 61 | 357 | 0.0 | 2.6 | 0.00 | 0.04 | 0.00 | 89 | 1016.7 |
| 20260507125008 | 61 | 312 | 0.0 | 2.6 | 0.00 | 0.04 | 0.00 | 89 | 1016.8 |
| 20260507124522 | 61 | 333 | 0.9 | 2.6 | 0.00 | 0.04 | 0.00 | 89 | 1016.9 |
| 20260507124011 | 61 | 345 | 0.0 | 2.6 | 0.00 | 0.04 | 0.00 | 90 | 1016.7 |
| 20260507123509 | 61 | 347 | 0.0 | 3.5 | 0.00 | 0.04 | 0.00 | 90 | 1016.8 |
| 20260507123029 | 62 | 342 | 0.0 | 3.5 | 0.00 | 0.04 | 0.00 | 90 | 1016.4 |
| 20260507122509 | 61 | 309 | 0.9 | 3.5 | 0.00 | 0.04 | 0.00 | 90 | 1016.4 |
| 20260507122011 | 62 | 349 | 0.0 | 4.3 | 0.00 | 0.04 | 0.00 | 90 | 1016.0 |
| 20260507121516 | 62 | 314 | 0.0 | 4.3 | 0.00 | 0.04 | 0.00 | 90 | 1015.9 |
| 20260507121004 | 62 | 357 | 0.0 | 3.5 | 0.00 | 0.04 | 0.00 | 90 | 1015.4 |
| 20260507120508 | 62 | 1 | 0.0 | 3.5 | 0.00 | 0.04 | 0.00 | 90 | 1015.4 |
| 20260507120011 | 62 | 317 | 0.0 | 1.7 | 0.00 | 0.04 | 0.00 | 89 | 1015.5 |
| 20260507115503 | 62 | 282 | 0.0 | 1.7 | 0.00 | 0.04 | 0.00 | 89 | 1015.4 |
| 20260507115008 | 62 | 348 | 0.0 | 3.5 | 0.00 | 0.04 | 0.00 | 89 | 1015.3 |
| 20260507114511 | 62 | 315 | 0.0 | 3.5 | 0.00 | 0.04 | 0.00 | 89 | 1015.1 |